This demonstration page uses our WeatherBlox Daily Observations layout. Learn more.

Left ArrowRight Arrow

Hourly Observations for March 5, 2021

Temp ( °F °C ) Dew Point ( °F °C ) Humidity (%) Winds ( mph kmh ) Pressure ( in mb ) Visibility ( mi km ) Precip ( " mm )
12:53 am 00:53 Clear 46 7.8 34 1.1 63 63 SSE 3 6 30.05 1018 10 16 0.00 0.00
1:53 am 01:53 Clear 43 6.1 35 1.7 74 74 Calm 30.06 1018 10 16 0.00 0.00
2:53 am 02:53 Clear 40 4.4 34 1.1 79 79 Calm 30.06 1018 10 16 0.00 0.00
3:53 am 03:53 Clear 39 3.9 35 1.7 86 86 Calm 30.05 1018 10 16 0.00 0.00
4:53 am 04:53 Clear 38 3.3 34 1.1 86 86 Calm 30.07 1018 10 16 0.00 0.00
5:53 am 05:53 Clear 37 2.8 34 1.1 89 89 Calm 30.07 1018 10 16 0.00 0.00
6:53 am 06:53 Clear 38 3.3 33 0.6 83 83 Calm 30.08 1019 10 16 0.00 0.00
7:53 am 07:53 Sunny 40 4.4 36 2.2 86 86 Calm 30.10 1019 10 16 0.00 0.00
8:53 am 08:53 Sunny 49 9.4 33 0.6 55 55 Calm 30.12 1020 10 16 0.00 0.00
9:53 am 09:53 Sunny 54 12.2 29 -1.7 38 38 Calm 30.11 1020 10 16 0.00 0.00
10:53 am 10:53 Sunny 59 15 29 -1.7 32 32 NW 10 17 30.11 1020 10 16 0.00 0.00
11:53 am 11:53 Sunny 60 15.6 21 -6.1 22 22 NNW 8 13 30.08 1019 10 16 0.00 0.00
12:53 pm 12:53 Sunny 62 16.7 18 -7.8 18 18 VRB 7 11 30.06 1018 10 16 0.00 0.00
1:53 pm 13:53 Sunny 65 18.3 15 -9.4 14 14 NNW 8 13 30.03 1017 10 16 0.00 0.00
2:53 pm 14:53 Sunny 65 18.3 20 -6.7 18 18 WNW 8 13 30.01 1016 10 16 0.00 0.00
3:53 pm 15:53 Sunny 65 18.3 20 -6.7 18 18 WNW 10 17 30.00 1016 10 16 0.00 0.00
4:53 pm 16:53 Sunny 63 17.2 21 -6.1 20 20 NW 10 17 30.01 1016 10 16 0.00 0.00
5:53 pm 17:53 Sunny 59 15 20 -6.7 22 22 NW 13 20 30.04 1017 10 16 0.00 0.00
6:53 pm 18:53 Clear 55 12.8 20 -6.7 25 25 NNW 10 17 30.07 1018 10 16 0.00 0.00
7:53 pm 19:53 Mostly Cloudy 52 11.1 18 -7.8 26 26 NNW 10 17 30.10 1019 10 16 0.00 0.00
8:53 pm 20:53 Cloudy 51 10.6 17 -8.3 26 26 NNW 6 9 30.09 1019 10 16 0.00 0.00
9:53 pm 21:53 Cloudy 50 10 19 -7.2 29 29 NNE 6 9 30.08 1019 10 16 0.00 0.00
10:53 pm 22:53 Partly Cloudy 50 10 21 -6.1 32 32 W 6 9 30.08 1019 10 16 0.00 0.00
11:53 pm 23:53 Mostly Cloudy 49 9.4 19 -7.2 31 31 NW 3 6 30.08 1019 10 16 0.00 0.00

Powered by AerisWeather